IRIS-F1

operational
NORAD ID: 59110 Int'l Des: 2024-043 Owner: SATORO/NCKU Country: TW
LEOCIRCULARRETROGRADE

About IRIS-F1

Description loading...

Live Position

Loading 3D Globe...

Upcoming Passes

Altitude History

Altitude vs Time

uPlot chart will show altitude changes over time

Two-Line Element Set

1 59110U 24043N 25278.32926425 .00208129 00000-0 17896-2 0 9991
2 59110 97.5062 57.2953 0002905 2.6863 357.4413 15.68683219 88810
Epoch: Oct 5, 2025 • Age: 11 hours

Current Status

Altitude 374.1 km
Velocity 7.69 km/s
Sub-Earth Point 72.51°N, 94.52°E
Launch Date Mar 4, 2024
Age 1.5 years
Type other

Technical Details

Classification Payload
Mass 4.00 kg
Dry Mass 4.00 kg
Total Mass 4.00 kg
Length 0.30 m
Diameter 1.00 m
Span 0.30 m
Shape Box
Manufacturer SATORO
Bus Type Cubesat 3U
Phase Status In Orbit
Owner/State SATORO/NCKU/TW

Large Constellations

Loading constellations...